Regional Weather Roundup
Issued by NWS

Home | Current Version | Previous Version | Text Only | Print | Product List | Glossary On
Versions: 1 2 3 4 5 6 7 8 9 10 11 12 13 14 15 16 17 18 19 20 21 22 23 24 25 26 27 28 29 30 31 32 33 34 35 36 37 38 39 40 41 42 43 44 45 46 47 48 49 50
000
ASUS45 KCYS 010610
RWRWY

WYOMING REGIONAL WEATHER ROUNDUP
NATIONAL WEATHER SERVICE CHEYENNE WY
1200 AM MDT FRI AUG 01 2014

NOTE:  "FAIR" INDICATES FEW OR NO CLOUDS BELOW 12,000 FEET
WITH NO SIGNIFICANT WEATHER AND/OR OBSTRUCTIONS TO VISIBILITY.

WYZ001-010700-
YELLOWSTONE NATIONAL PARK

CITY           SKY/WX    TMP DP  RH WIND       PRES   REMARKS
LK YELLOWSTONE   N/A     50  44  80 NW3       30.44F
6HR MIN TEMP:  50; 6HR MAX TEMP:  60; 6HR PCP:  0.01;

W YELLOWSTONE  NOT AVBL

$$
WYZ002>013-054>058-071-098>099-010700-
NORTHERN WYOMING

CITY           SKY/WX    TMP DP  RH WIND       PRES   REMARKS
JACKSON        MOCLDY    63  43  48 N10       30.32S
CODY           PTCLDY    66  39  37 SW6       30.21F
GREYBULL       CLEAR     71  40  32 W5        30.12R
6HR MIN TEMP:  70; 6HR MAX TEMP:  91;

WORLAND        PTCLDY    64  47  53 CALM      30.13R
6HR MIN TEMP:  64; 6HR MAX TEMP:  91;

SHERIDAN       CLEAR     61  43  51 S6        30.12R
6HR MIN TEMP:  59; 6HR MAX TEMP:  86;

BUFFALO        CLEAR     67  36  31 W8        30.20S
6HR MIN TEMP:  66; 6HR MAX TEMP:  82;

GILLETTE       PTCLDY    67  44  43 S12       30.17R
6HR MIN TEMP:  60; 6HR MAX TEMP:  87;

HULETT         FAIR      68  45  42 MISG      30.16
NEWCASTLE      FAIR      61  41  48 CALM      30.19

$$
WYZ014>020-022>026-101>103-010700-
CENTRAL WYOMING

CITY           SKY/WX    TMP DP  RH WIND       PRES   REMARKS
BIG PINEY      PTCLDY    55  45  68 N6        30.35R
6HR MIN TEMP:  52; 6HR MAX TEMP:  74;

PINEDALE       MOCLDY    52  45  76 W3        30.35S
DUBOIS         FAIR      54  39  58 NW7       30.36S
LANDER         CLEAR     63  34  33 VRB3      30.22S
6HR MIN TEMP:  63; 6HR MAX TEMP:  82;

RIVERTON       PTCLDY    66  35  31 W7        30.23S
6HR MIN TEMP:  61; 6HR MAX TEMP:  82;

CASPER         CLEAR     61  35  37 W5        30.22R
6HR MIN TEMP:  54; 6HR MAX TEMP:  84;

DOUGLAS        CLEAR     60  44  55 SE6       30.23S
6HR MIN TEMP:  60; 6HR MAX TEMP:  83;


$$
WYZ021-027>030-104>119-010700-
SOUTHERN WYOMING

CITY           SKY/WX    TMP DP  RH WIND       PRES   REMARKS
EVANSTON       CLEAR     63  42  46 N3        30.33S
6HR MIN TEMP:  62; 6HR MAX TEMP:  75;

KEMMERER       CLEAR     54  41  62 N14       30.35F
FORT BRIDGER   FAIR      65  41  41 N3        30.36R
ROCK SPRINGS   PTCLDY    64  32  30 N5        30.30S
6HR MIN TEMP:  63; 6HR MAX TEMP:  80;

DIXON          FAIR      61  44  53 NE6       30.30S
RAWLINS        CLEAR     58  42  55 E6        30.31S
6HR MIN TEMP:  58; 6HR MAX TEMP:  78;

SARATOGA       FAIR      55  43  62 S9        30.34S
LARAMIE        CLEAR     52  46  80 S5        30.37S
6HR MIN TEMP:  51; 6HR MAX TEMP:  70;

CHEYENNE       CLEAR     59  49  69 NW5       30.32R
6HR MIN TEMP:  58; 6HR MAX TEMP:  74;

TORRINGTON     CLEAR     60  46  59 SE5       30.19S
6HR MIN TEMP:  59; 6HR MAX TEMP:  83;

PINE BLUFFS    FAIR      61  52  72 CALM      30.27F

$$



USA.gov is the U.S. government's official web portal to all federal, state and local government web resources and services.